| time (UTC) | temp F | wind direction | speed MPH | gust MPH | rain 1hr in | rain 24hr in | rain mn in | humidity % | barometer mb |
| 20260505052705 | 50 | 117 | 2.0 | 5.0 | 0.00 | 0.31 | 0.00 | 81 | 1001.4 |
| 20260505052205 | 50 | 116 | 2.0 | 5.0 | 0.00 | 0.31 | 0.00 | 81 | 1001.4 |
| 20260505050705 | 50 | 104 | 2.0 | 5.0 | 0.00 | 0.31 | 0.00 | 82 | 1001.6 |
| 20260505050205 | 50 | 103 | 2.0 | 3.0 | 0.00 | 0.31 | 0.00 | 82 | 1001.6 |
| 20260505040705 | 49 | 90 | 1.0 | 3.0 | 0.00 | 0.31 | 0.00 | 84 | 1002.0 |
| 20260505040204 | 50 | 90 | 1.0 | 3.0 | 0.00 | 0.31 | 0.00 | 84 | 1002.0 |
| 20260505034705 | 50 | 90 | 1.0 | 3.0 | 0.00 | 0.31 | 0.31 | 84 | 1002.0 |
| 20260505034205 | 51 | 90 | 1.0 | 3.0 | 0.00 | 0.31 | 0.31 | 84 | 1002.0 |
| 20260505032705 | 51 | 90 | 2.0 | 5.0 | 0.00 | 0.31 | 0.31 | 84 | 1002.0 |
| 20260505032205 | 51 | 90 | 1.0 | 3.0 | 0.00 | 0.31 | 0.31 | 84 | 1002.0 |
| 20260505030705 | 51 | 90 | 2.0 | 6.0 | 0.00 | 0.31 | 0.31 | 84 | 1002.2 |
| 20260505030205 | 51 | 90 | 3.0 | 5.0 | 0.00 | 0.31 | 0.31 | 84 | 1002.2 |
| 20260505024705 | 51 | 88 | 2.0 | 3.0 | 0.00 | 0.31 | 0.31 | 84 | 1002.4 |
| 20260505024205 | 52 | 88 | 2.0 | 5.0 | 0.00 | 0.31 | 0.31 | 84 | 1002.5 |
| 20260505022704 | 52 | 88 | 1.0 | 3.0 | 0.00 | 0.31 | 0.31 | 84 | 1002.8 |
| 20260505022205 | 52 | 88 | 1.0 | 5.0 | 0.00 | 0.31 | 0.31 | 84 | 1002.7 |
| 20260505020705 | 53 | 88 | 3.0 | 5.0 | 0.00 | 0.31 | 0.31 | 83 | 1002.7 |
| 20260505020205 | 53 | 88 | 2.0 | 6.0 | 0.00 | 0.31 | 0.31 | 83 | 1002.8 |
| 20260505014705 | 53 | 88 | 2.0 | 3.0 | 0.00 | 0.31 | 0.31 | 83 | 1002.9 |
| 20260505014205 | 53 | 88 | 1.0 | 5.0 | 0.00 | 0.31 | 0.31 | 82 | 1003.0 |
| 20260505012705 | 54 | 88 | 3.0 | 6.0 | 0.00 | 0.31 | 0.31 | 82 | 1003.2 |
| 20260505012205 | 54 | 88 | 3.0 | 7.0 | 0.00 | 0.31 | 0.31 | 81 | 1003.2 |
| 20260505010705 | 54 | 90 | 5.0 | 7.0 | 0.00 | 0.31 | 0.31 | 80 | 1003.1 |
| 20260505010205 | 54 | 100 | 4.0 | 6.0 | 0.00 | 0.31 | 0.31 | 80 | 1003.3 |
| 20260505004705 | 55 | 104 | 2.0 | 3.0 | 0.00 | 0.31 | 0.31 | 79 | 1003.2 |
| 20260505004204 | 55 | 104 | 2.0 | 7.0 | 0.00 | 0.31 | 0.31 | 78 | 1002.9 |
| 20260505002704 | 55 | 138 | 2.0 | 5.0 | 0.00 | 0.31 | 0.31 | 78 | 1003.2 |
| 20260505002204 | 55 | 152 | 2.0 | 3.0 | 0.00 | 0.31 | 0.31 | 79 | 1003.1 |
| 20260505000705 | 54 | 167 | 2.0 | 3.0 | 0.00 | 0.31 | 0.31 | 80 | 1002.8 |
| 20260505000205 | 55 | 167 | 1.0 | 3.0 | 0.00 | 0.31 | 0.31 | 80 | 1002.9 |
| 20260504234705 | 55 | 169 | 1.0 | 2.0 | 0.00 | 0.31 | 0.31 | 80 | 1002.8 |
| 20260504232705 | 57 | 169 | 0.0 | 0.0 | 0.00 | 0.31 | 0.31 | 75 | 1002.8 |
| 20260504232205 | 57 | 169 | 0.0 | 2.0 | 0.00 | 0.31 | 0.31 | 76 | 1002.8 |
| 20260504230705 | 58 | 169 | 0.0 | 0.0 | 0.00 | 0.31 | 0.31 | 74 | 1002.7 |
| 20260504230205 | 58 | 169 | 0.0 | 2.0 | 0.00 | 0.31 | 0.31 | 72 | 1002.7 |
| 20260504224705 | 58 | 169 | 1.0 | 3.0 | 0.00 | 0.31 | 0.31 | 72 | 1002.7 |
| 20260504224205 | 58 | 169 | 1.0 | 3.0 | 0.00 | 0.31 | 0.31 | 72 | 1002.7 |
| 20260504222704 | 59 | 169 | 1.0 | 2.0 | 0.00 | 0.31 | 0.31 | 70 | 1002.7 |
| 20260504222204 | 60 | 169 | 2.0 | 5.0 | 0.00 | 0.31 | 0.31 | 69 | 1002.9 |
| 20260504220704 | 60 | 167 | 2.0 | 3.0 | 0.00 | 0.31 | 0.31 | 71 | 1003.0 |
| 20260504220205 | 59 | 167 | 2.0 | 7.0 | 0.00 | 0.31 | 0.31 | 72 | 1003.0 |
| 20260504214704 | 59 | 169 | 2.0 | 6.0 | 0.00 | 0.31 | 0.31 | 72 | 1003.1 |
| 20260504214205 | 59 | 161 | 4.0 | 9.0 | 0.00 | 0.31 | 0.31 | 71 | 1003.1 |
| 20260504212704 | 58 | 191 | 1.0 | 6.0 | 0.00 | 0.31 | 0.31 | 73 | 1003.1 |
| 20260504212204 | 58 | 192 | 3.0 | 7.0 | 0.00 | 0.31 | 0.31 | 74 | 1003.2 |
| 20260504210705 | 57 | 185 | 2.0 | 5.0 | 0.00 | 0.31 | 0.31 | 75 | 1003.3 |
| 20260504210205 | 57 | 182 | 3.0 | 7.0 | 0.00 | 0.31 | 0.31 | 75 | 1003.3 |
| 20260504204705 | 56 | 207 | 4.0 | 7.0 | 0.00 | 0.31 | 0.31 | 76 | 1003.3 |
| 20260504202704 | 57 | 234 | 3.0 | 6.0 | 0.00 | 0.31 | 0.31 | 75 | 1003.4 |
| 20260504202205 | 56 | 182 | 5.0 | 8.0 | 0.00 | 0.31 | 0.31 | 75 | 1003.5 |
| 20260504200704 | 57 | 215 | 3.0 | 6.0 | 0.00 | 0.31 | 0.31 | 75 | 1003.4 |
| 20260504200204 | 57 | 169 | 2.0 | 9.0 | 0.00 | 0.31 | 0.31 | 77 | 1003.4 |
| 20260504194705 | 55 | 171 | 2.0 | 3.0 | 0.00 | 0.31 | 0.31 | 80 | 1003.5 |
| 20260504194205 | 54 | 168 | 2.0 | 9.0 | 0.00 | 0.31 | 0.31 | 81 | 1003.6 |
| 20260504192704 | 55 | 180 | 3.0 | 7.0 | 0.00 | 0.31 | 0.31 | 78 | 1003.9 |
| 20260504192204 | 55 | 241 | 2.0 | 9.0 | 0.00 | 0.31 | 0.31 | 80 | 1003.9 |
| 20260504190705 | 55 | 216 | 4.0 | 7.0 | 0.00 | 0.31 | 0.31 | 80 | 1004.0 |
| 20260504190204 | 54 | 192 | 2.0 | 6.0 | 0.00 | 0.31 | 0.31 | 80 | 1003.9 |
| 20260504184704 | 51 | 258 | 2.0 | 3.0 | 0.00 | 0.31 | 0.31 | 83 | 1004.2 |
| 20260504184205 | 51 | 260 | 3.0 | 5.0 | 0.00 | 0.31 | 0.31 | 83 | 1004.3 |
| 20260504182704 | 50 | 264 | 3.0 | 6.0 | 0.00 | 0.31 | 0.31 | 82 | 1004.3 |
| 20260504182204 | 50 | 279 | 1.0 | 7.0 | 0.00 | 0.31 | 0.31 | 83 | 1004.3 |
| 20260504180704 | 50 | 293 | 4.0 | 9.0 | 0.00 | 0.31 | 0.31 | 82 | 1004.4 |
| 20260504180204 | 50 | 266 | 4.0 | 9.0 | 0.00 | 0.31 | 0.31 | 82 | 1004.3 |
| 20260504174705 | 51 | 253 | 5.0 | 10.0 | 0.00 | 0.31 | 0.31 | 81 | 1004.3 |
| 20260504174204 | 52 | 264 | 5.0 | 13.0 | 0.00 | 0.31 | 0.31 | 81 | 1004.3 |
| 20260504172704 | 52 | 281 | 6.0 | 9.0 | 0.00 | 0.31 | 0.31 | 83 | 1004.3 |
| 20260504172204 | 51 | 290 | 6.0 | 14.0 | 0.00 | 0.31 | 0.31 | 84 | 1004.2 |
| 20260504170704 | 50 | 284 | 5.0 | 12.0 | 0.00 | 0.31 | 0.31 | 86 | 1004.4 |
| 20260504170204 | 50 | 285 | 7.0 | 12.0 | 0.00 | 0.31 | 0.31 | 89 | 1004.4 |
| 20260504160204 | 45 | 239 | 2.0 | 3.0 | 0.00 | 0.31 | 0.31 | 93 | 1004.3 |
| 20260504150704 | 44 | 239 | 1.0 | 2.0 | 0.01 | 0.31 | 0.31 | 94 | 1004.0 |
| 20260504140706 | 42 | 238 | 3.0 | 5.0 | 0.09 | 0.30 | 0.30 | 93 | 1003.7 |
| 20260504140204 | 42 | 211 | 3.0 | 5.0 | 0.10 | 0.30 | 0.30 | 93 | 1003.6 |
| 20260504130704 | 41 | 153 | 0.0 | 0.0 | 0.17 | 0.20 | 0.20 | 91 | 1003.2 |
| 20260504130204 | 41 | 153 | 0.0 | 0.0 | 0.17 | 0.20 | 0.20 | 91 | 1003.3 |
| 20260504120204 | 42 | 153 | 2.0 | 3.0 | 0.03 | 0.03 | 0.03 | 87 | 1003.3 |
| 20260504110704 | 43 | 164 | 2.0 | 3.0 | 0.00 | 0.00 | 0.00 | 81 | 1003.6 |
| 20260504110204 | 42 | 165 | 3.0 | 7.0 | 0.00 | 0.00 | 0.00 | 80 | 1003.8 |
| 20260504100204 | 38 | 168 | 3.0 | 6.0 | 0.00 | 0.00 | 0.00 | 79 | 1004.1 |
| 20260504080703 | 38 | 177 | 3.0 | 3.0 | 0.00 | 0.00 | 0.00 | 75 | 1004.7 |
| 20260504080204 | 38 | 177 | 2.0 | 6.0 | 0.00 | 0.00 | 0.00 | 75 | 1004.7 |
| 20260504070205 | 38 | 177 | 3.0 | 5.0 | 0.00 | 0.00 | 0.00 | 73 | 1004.6 |